Weather in Sosnovo-Ozerskoe

Russia / Republic of Buryatia     52°31′43″N   111°32′15″E
temp.,
°C
wind,
m/s
gust,
m/s
humid.,
%
clouds,
%
prec.,
mm/h
press.,
hPa
HPBL,
m
13 april, tue
tue1323:00−8nnw23675 0.0 102648
02:00−9wnw22680 0.0 102511
05:00−10wsw22720 0.0 102527
08:00−6wsw45560 0.0 1022355
11:00+1w67325 0.0 10171555
14:00+4wnw682986 0.0 10122130
17:00+4wnw79318 0.0 10101909
20:000wnw365071 0.0 1011118
14 april, wed
wed1423:000wsw51156100 0.0 1009868
02:00−2w6128297 0.0 1009751
05:00−3wnw8156622 0.0 1010755
08:00−1wnw71147100 0.0 1011829
11:00+3nw7724100 0.0 10112046
14:00+3nw7724100 0.0 10102735
17:00+2nw8928100 0.0 10112319
20:00−2wnw711516 0.0 1014772
15 april, thu
thu1523:00−5wnw496110 0.0 1014340
02:00−7wsw34765 0.0 101478
05:00−8wsw34865 0.0 101362
08:00−4w47605 0.0 1012610
11:00+1w573034 0.0 10082000
14:00+3wnw6834100 0.1 10072484
17:00+1wnw6743100 0.6 10071668
20:00−1nw595376 0.6 1011443
16 april, fri
fri1623:00−4nw5106493 0.0 1014401
02:00
05:00−8w37775 0.0 1019132
08:00−3w46495 0.0 1019705
11:00+1w56278 0.0 10171699
14:00+4w782850 0.0 10141846
17:00+6w7103474 0.0 10121784
20:00+2w6115620 0.0 1014637
17 april, sat
sat1723:000wsw51268100 0.0 1014357
02:00−2wsw4117424 0.0 1016249
05:00−2wsw41183100 0.0 1014216
08:00+3wsw595776 0.0 1013291
11:00+10wsw793398 0.0 10091240
14:00+12w7827100 0.0 10061812
17:00+13wsw572580 0.0 10041808
20:00+7w22375 0.0 100510